Home > Weather > Rafsanjan > Past weeks

Flag for Iran Past Weather in Rafsanjan, Iran — Yesterday and Last 2 Weeks

Now
91 °F

Sunny.


Feels Like: 87 °F
Forecast: 74 / 99 °F
Wind: 9 mph from Northeast

Location: Kerman Airport

Current Time: Jun 30, 2016 at 8:30:53 PM

Latest Report: Jun 30, 2016 at 7:30 PM


Visibility: 10 mi

Pressure: 29.98 "Hg (25.32 "Hg at 1515m altitude)

Humidity: 5%

Dew Point: 10 °F

Location of RafsanjanLocation

Past Weather in Rafsanjan — Graph

°F

Rafsanjan Temperature Yesterday

Maximum temperature yesterday: 95 °F (at 2:30 PM)
Minimum temperature yesterday: 59 °F (at 5:30 AM)
Average temperature yesterday: 81 °F

High & Low Weather Summary for the Past Weeks

 TemperatureHumidityPressure
High97 °F (Jun 18, 2:30 PM)34% (Jun 29, 5:30 AM)30.15 "Hg (Jun 29, 5:30 AM)
Low55 °F (Jun 25, 6:22 AM)3% (Jun 18, 9:30 AM)29.89 "Hg (Jun 16, 5:30 PM)
Average80 °F10%30.03 "Hg
* Reported Jun 15 7:30 PM — Jun 30 7:30 PM, Rafsanjan, Weather by CustomWeather, © 2016

Note: Actual official high and low records may vary slightly from our data, if they occured in-between our weather recording intervals... More about our weather records

Advertising

Rafsanjan Weather History for the Previous 24 Hours

Scroll right to see more
 ConditionsComfort  
Time TempWeatherWind HumidityBarometerVisibility
7:30 PM
Thu, Jun 30
91 °FSunny.9 mph5%29.98 "Hg10 mi
6:30 PM95 °FSunny.14 mph5%29.98 "Hg10 mi
5:30 PM95 °FSunny.12 mph5%29.98 "Hg10 mi
4:30 PM95 °FSunny.12 mph4%29.98 "Hg10 mi
3:30 PM97 °FSunny.14 mph4%29.98 "Hg10 mi
2:30 PM95 °FSunny.12 mph4%29.98 "Hg10 mi
1:30 PM93 °FSunny.9 mph4%30.01 "Hg10 mi
12:20 PM93 °FSunny.5 mph5%30.04 "Hg10 mi
11:30 AM90 °FSunny.9 mph6%30.04 "Hg10 mi
10:30 AM88 °FSunny.14 mph7%30.04 "Hg10 mi
9:30 AM84 °FSunny.5 mph8%30.04 "Hg10 mi
8:30 AM77 °FSunny.5 mph12%30.07 "Hg10 mi
7:30 AM75 °FSunny.No wind13%30.07 "Hg10 mi
6:30 AM63 °FClear.No wind20%30.04 "Hg10 mi
5:30 AM63 °FClear.2 mph19%30.04 "Hg10 mi
4:20 AM61 °FClear.5 mph22%30.01 "Hg10 mi
3:30 AM63 °FClear.5 mph19%30.01 "Hg10 mi
2:30 AM66 °FClear.5 mph15%30.01 "Hg10 mi
1:30 AM70 °FClear.5 mph12%30.04 "Hg10 mi
12:30 AM75 °FClear.No wind10%30.04 "Hg10 mi
11:30 PM
Wed, Jun 29
79 °FClear.5 mph9%30.04 "Hg10 mi
10:30 PM82 °FClear.7 mph7%30.04 "Hg10 mi
9:30 PM81 °FClear.5 mph9%30.01 "Hg10 mi
8:30 PM84 °FSunny.9 mph7%29.98 "Hg10 mi
Weather by CustomWeather, © 2016

See weather overviewHow to use our weather pages